OE5HMR-13 Weather Reports


time (UTC)temp
C
wind
direction
speed
KPH
gust
KPH
rain 1hr
cm
rain 24hr
cm
rain mn
cm
humidity
%
barometer
mb
20260905234737 8 56 1.6 1.6 0.00 0.36 0.00 85 1026.2
20260905233714 8 0.0 0.0 0.00 0.36 0.00 83 1026.2
20260905232711 8 0.0 0.0 0.00 0.36 0.00 81 1026.2
20260905231707 9 0.0 0.0 0.00 0.36 0.00 80 1026.1
20260905230704 9 56 0.0 1.6 0.00 0.36 0.00 80 1026.0
20260905225701 10 57 0.0 1.6 0.00 0.36 0.00 80 1026.0
20260905224719 10 11 0.0 3.2 0.00 0.36 0.00 81 1026.0
20260905223717 10 0.0 0.0 0.00 0.36 0.00 81 1026.0
20260905222714 10 338 3.2 6.4 0.00 0.36 0.00 81 1025.9
20260905221712 10 332 1.6 3.2 0.00 0.36 0.00 81 1025.8
20260905220714 11 356 1.6 3.2 0.00 0.36 0.00 82 1025.6
20260905215714 11 329 3.2 6.4 0.00 0.36 0.36 82 1025.5
20260905214712 11 336 4.8 6.4 0.00 0.36 0.36 83 1025.5
20260905213709 11 334 1.6 3.2 0.00 0.36 0.36 81 1025.4
20260905212706 11 334 1.6 3.2 0.00 0.36 0.36 81 1025.4
20260905211704 12 336 1.6 4.8 0.00 0.36 0.36 81 1025.2
20260905210720 12 321 1.6 3.2 0.00 0.36 0.36 81 1025.2
20260905205757 12 314 0.0 3.2 0.00 0.36 0.36 80 1025.2
20260905204714 12 313 0.0 1.6 0.00 0.36 0.36 80 1025.2
20260905203711 13 333 1.6 4.8 0.00 0.36 0.36 81 1025.2
20260905202708 13 357 1.6 3.2 0.00 0.36 0.36 81 1025.1
20260905201705 13 345 1.6 3.2 0.00 0.36 0.36 80 1025.0
20260905200702 13 326 0.0 3.2 0.00 0.36 0.36 80 1025.0
20260905195700 13 317 1.6 3.2 0.00 0.36 0.36 81 1024.9
20260905194717 14 299 1.6 4.8 0.00 0.36 0.36 81 1024.8
20260905193714 14 281 1.6 4.8 0.00 0.36 0.36 80 1024.7
20260905192710 14 276 3.2 6.4 0.00 0.36 0.36 80 1024.7
20260905191707 14 284 3.2 9.7 0.00 0.36 0.36 80 1024.5
20260905190705 15 264 4.8 14.5 0.00 0.36 0.36 79 1024.4
20260905185701 15 274 3.2 9.7 0.00 0.36 0.36 78 1024.4
20260905184719 15 275 4.8 12.9 0.00 0.36 0.36 77 1024.2
20260905183716 15 274 3.2 9.7 0.00 0.36 0.36 76 1024.2
20260905182713 15 261 4.8 11.3 0.00 0.36 0.36 76 1024.0
20260905181712 15 269 6.4 16.1 0.00 0.36 0.36 75 1023.8
20260905180709 15 276 8.0 16.1 0.00 0.36 0.36 74 1023.6
20260905175715 15 272 8.0 16.1 0.00 0.36 0.36 72 1023.5
20260905174721 15 268 8.0 14.5 0.00 0.36 0.36 71 1023.3
20260905173725 16 275 6.4 17.7 0.00 0.36 0.36 69 1023.2
20260905172738 16 278 6.4 11.3 0.00 0.36 0.36 67 1023.1
20260905171711 17 284 6.4 14.5 0.00 0.36 0.36 65 1023.2
20260905170708 17 280 8.0 14.5 0.00 0.36 0.36 64 1023.1
20260905165703 17 283 8.0 16.1 0.00 0.36 0.36 63 1023.1
20260905164659 18 276 8.0 22.5 0.00 0.36 0.36 62 1023.1
20260905163715 18 289 9.7 27.4 0.00 0.36 0.36 61 1023.0
20260905162712 18 272 11.3 29.0 0.00 0.36 0.36 62 1023.1
20260905161709 18 292 8.0 14.5 0.00 0.36 0.36 62 1023.0
20260905160706 18 312 8.0 22.5 0.00 0.36 0.36 61 1022.8
20260905155704 18 257 14.5 29.0 0.00 0.36 0.36 60 1022.7
20260905154700 18 295 9.7 17.7 0.00 0.36 0.36 61 1022.8
20260905153717 18 286 8.0 30.6 0.00 0.36 0.36 59 1022.6
20260905152734 18 280 12.9 30.6 0.00 0.36 0.36 60 1022.7
20260905151731 17 280 8.0 14.5 0.00 0.36 0.36 62 1022.8
20260905150707 18 275 9.7 20.9 0.00 0.36 0.36 61 1022.6
20260905145703 18 305 8.0 17.7 0.00 0.36 0.36 62 1022.7
20260905144720 18 277 9.7 20.9 0.00 0.36 0.36 59 1022.6
20260905143716 19 288 11.3 24.1 0.00 0.36 0.36 59 1022.5
20260905142713 19 300 12.9 20.9 0.00 0.36 0.36 59 1022.4
20260905141710 18 304 11.3 22.5 0.00 0.36 0.36 61 1022.5
20260905140706 19 280 12.9 25.7 0.00 0.36 0.36 62 1022.5
20260905135700 19 283 12.9 24.1 0.00 0.36 0.36 61 1022.6
20260905134717 18 299 9.7 20.9 0.00 0.36 0.36 63 1022.7
20260905133714 18 296 9.7 22.5 0.00 0.36 0.36 62 1022.7
20260905132711 18 310 9.7 24.1 0.00 0.36 0.36 64 1022.6
20260905131728 18 310 12.9 27.4 0.00 0.36 0.36 66 1022.6
20260905130745 18 297 12.9 25.7 0.00 0.36 0.36 67 1022.6
20260905125701 18 306 9.7 17.7 0.00 0.36 0.36 68 1022.7
20260905124718 18 294 11.3 24.1 0.00 0.36 0.36 67 1022.9
20260905123715 18 294 8.0 17.7 0.00 0.36 0.36 70 1022.9
20260905122712 18 274 9.7 16.1 0.00 0.36 0.36 73 1023.1
20260905121728 17 303 8.0 16.1 0.00 0.36 0.36 77 1023.1
20260905120705 17 275 6.4 14.5 0.00 0.36 0.36 77 1023.2
20260905115701 16 280 4.8 14.5 0.00 0.36 0.36 77 1023.1
20260905114718 17 276 8.0 17.7 0.00 0.36 0.36 75 1023.0
20260905113715 16 282 8.0 20.9 0.00 0.36 0.36 80 1023.0
20260905112711 15 266 9.7 20.9 0.00 0.36 0.36 81 1023.0
20260905111708 15 264 8.0 20.9 0.00 0.36 0.36 80 1023.0
20260905110705 15 267 6.4 17.7 0.00 0.36 0.36 85 1022.9
20260905105702 15 270 8.0 16.1 0.00 0.36 0.36 82 1022.9
20260905104658 15 295 4.8 12.9 0.00 0.36 0.36 87 1023.0
20260905103715 14 272 8.0 22.5 0.00 0.36 0.36 87 1023.1
20260905102713 13 283 6.4 14.5 0.00 0.36 0.36 88 1023.2
20260905101709 13 259 9.7 16.1 0.00 0.36 0.36 87 1023.1
20260905100706 13 275 4.8 11.3 0.00 0.36 0.36 88 1023.2
20260905095659 13 269 6.4 14.5 0.00 0.36 0.36 87 1023.1
20260905094716 13 270 8.0 16.1 0.00 0.36 0.36 89 1023.0
20260905093753 13 272 8.0 16.1 0.00 0.36 0.36 88 1023.0
20260905092708 13 263 8.0 20.9 0.00 0.36 0.36 91 1022.9
20260905091705 13 253 8.0 14.5 0.00 0.36 0.36 92 1023.1
20260905090702 12 268 9.7 17.7 0.00 0.36 0.36 92 1023.1
20260905085701 12 251 9.7 17.7 0.03 0.36 0.36 91 1023.0
20260905084719 12 253 9.7 17.7 0.03 0.36 0.36 91 1022.9
20260905083716 12 242 9.7 17.7 0.03 0.36 0.36 89 1022.8
20260905082713 12 249 8.0 17.7 0.03 0.36 0.36 89 1023.0
20260905081709 12 242 8.0 14.5 0.05 0.33 0.33 88 1022.8
20260905080806 13 248 8.0 12.9 0.05 0.33 0.33 88 1022.7
20260905075703 13 243 8.0 12.9 0.05 0.33 0.33 88 1022.8
20260905074700 12 229 6.4 11.3 0.05 0.33 0.33 88 1022.5
20260905073720 12 203 6.4 14.5 0.05 0.33 0.33 89 1022.3
20260905072714 12 220 4.8 14.5 0.08 0.33 0.33 87 1022.2
20260905071711 12 238 6.4 11.3 0.05 0.30 0.30 86 1022.2
20260905070708 12 252 6.4 12.9 0.08 0.28 0.28 85 1022.3
20260905065704 12 238 6.4 11.3 0.05 0.28 0.28 84 1022.1
20260905064700 12 319 1.6 1.6 0.05 0.28 0.28 84 1021.3
20260905063716 12 323 0.0 3.2 0.05 0.25 0.25 84 1021.5
20260905062714 12 317 3.2 12.9 0.15 0.25 0.25 85 1021.9
20260905061711 12 329 9.7 16.1 0.18 0.25 0.25 87 1021.7
20260905060708 12 328 11.3 24.1 0.15 0.23 0.23 87 1021.0
20260905055708 12 338 9.7 22.5 0.15 0.23 0.23 87 1021.1
20260905054704 12 356 6.4 11.3 0.15 0.23 0.23 85 1021.1
20260905053702 13 350 8.0 17.7 0.15 0.23 0.23 85 1021.0
20260905052715 13 338 16.1 33.8 0.10 0.10 0.10 81 1021.4
20260905051714 13 11 9.7 20.9 0.08 0.08 0.08 79 1020.9
20260905050709 13 14 6.4 16.1 0.08 0.08 0.08 77 1020.5
20260905045705 13 36 6.4 20.9 0.08 0.08 0.08 77 1020.5
20260905044701 14 55 4.8 11.3 0.05 0.05 0.05 76 1020.3
20260905043719 14 43 4.8 11.3 0.05 0.05 0.05 74 1020.5
20260905042715 15 11 6.4 14.5 0.00 0.00 0.00 73 1020.3
20260905041712 15 30 6.4 14.5 0.00 0.00 0.00 72 1020.0
20260905040709 15 50 1.6 6.4 0.00 0.00 0.00 71 1019.4
20260905035745 15 36 1.6 4.8 0.00 0.00 0.00 70 1019.2
20260905034722 15 53 4.8 11.3 0.00 0.00 0.00 68 1019.4
20260905033719 15 61 3.2 14.5 0.00 0.00 0.00 68 1019.2
20260905032735 15 33 1.6 3.2 0.00 0.00 0.00 69 1019.2
20260905031712 16 61 3.2 9.7 0.00 0.00 0.00 69 1018.9
20260905030708 16 54 1.6 4.8 0.00 0.00 0.00 69 1019.0
20260905025704 16 58 8.0 16.1 0.00 0.00 0.00 69 1019.0
20260905024700 17 29 6.4 11.3 0.00 0.00 0.00 68 1018.9
20260905023718 18 34 8.0 20.9 0.00 0.00 0.00 66 1018.8
20260905022714 18 331 16.1 33.8 0.00 0.00 0.00 66 1018.4
20260905021711 18 333 4.8 9.7 0.00 0.00 0.00 63 1018.0
20260905020710 18 334 6.4 12.9 0.00 0.00 0.00 62 1017.8
20260905015720 19 328 6.4 11.3 0.00 0.00 0.00 62 1017.7
20260905014734 19 300 3.2 9.7 0.00 0.00 0.00 62 1017.7
20260905013712 19 309 3.2 11.3 0.00 0.00 0.00 61 1017.8
20260905012708 20 308 3.2 6.4 0.00 0.00 0.00 60 1017.7
20260905011705 20 322 4.8 11.3 0.00 0.00 0.00 60 1017.7
20260905010702 20 309 3.2 9.7 0.00 0.00 0.00 59 1017.8
20260905005719 20 302 4.8 12.9 0.00 0.00 0.00 59 1017.7
20260905004716 20 291 4.8 9.7 0.00 0.00 0.00 59 1017.6
20260905003712 20 301 6.4 16.1 0.00 0.00 0.00 59 1017.5
20260905002709 20 283 6.4 12.9 0.00 0.00 0.00 58 1017.5
20260905001704 20 287 6.4 12.9 0.00 0.00 0.00 59 1017.4
20260905000701 20 280 4.8 14.5 0.00 0.00 0.00 59 1017.4
20260904235658 20 282 4.8 11.3 0.00 0.00 0.00 58 1017.4